FW6870 Weather Reports


Display with metric or nautical units.
time (UTC)temp
F
wind
direction
speed
MPH
gust
MPH
rain 1hr
in
rain 24hr
in
rain mn
in
humidity
%
barometer
mb
20260903033034 85 155 2.0 4.0 0.00 0.00 0.00 69 1019.5
20260903031538 84 93 3.0 7.0 0.00 0.00 0.00 69 1019.6
20260903023040 87 155 0.0 3.0 0.00 0.00 0.00 60 1019.4
20260903021534 88 157 1.0 5.0 0.00 0.00 0.00 58 1019.4
20260903014533 89 154 2.0 3.0 0.00 0.00 0.00 57 1019.2
20260903013036 89 155 2.0 5.0 0.00 0.00 0.00 57 1019.0
20260903010037 89 144 3.0 4.0 0.00 0.00 0.00 60 1018.7
20260903004545 90 126 3.0 6.0 0.00 0.00 0.00 57 1018.5
20260903003034 91 129 3.0 4.0 0.00 0.00 0.00 53 1018.5
20260903000044 92 134 2.0 3.0 0.00 0.00 0.00 52 1018.2
20260902234536 92 134 1.0 2.0 0.00 0.00 0.00 52 1018.1
20260902233042 93 134 2.0 4.0 0.00 0.00 0.00 52 1018.1
20260902230036 93 144 2.0 4.0 0.00 0.00 0.00 50 1018.1
20260902224548 93 144 3.0 7.0 0.00 0.00 0.00 49 1018.3
20260902221535 93 97 0.0 3.0 0.00 0.00 0.00 49 1018.4
20260902220037 93 146 2.0 4.0 0.00 0.00 0.00 49 1018.4
20260902214605 93 71 1.0 6.0 0.00 0.00 0.00 48 1018.4
20260902211536 95 78 4.0 7.0 0.00 0.00 0.00 46 1018.4
20260902210036 95 82 2.0 8.0 0.00 0.00 0.00 45 1018.4
20260902204535 95 19 2.0 9.0 0.00 0.00 0.00 45 1018.6
20260902203034 94 28 3.0 8.0 0.00 0.00 0.00 47 1018.7
20260902201539 94 69 5.0 9.0 0.00 0.00 0.00 46 1018.7
20260902200034 94 82 2.0 8.0 0.00 0.00 0.00 48 1018.7
20260902173035 91 59 2.0 8.0 0.00 0.00 0.00 55 1020.4
20260902163036 91 19 3.0 7.0 0.00 0.00 0.00 59 1021.2
20260902160034 89 84 1.0 7.0 0.00 0.00 0.00 60 1021.4
20260902150034 87 66 3.0 6.0 0.00 0.00 0.00 68 1021.6
20260902140033 83 55 2.0 4.0 0.00 0.00 0.00 72 1021.5
20260902134534 83 83 2.0 5.0 0.00 0.00 0.00 72 1021.6
20260902133050 81 53 3.0 6.0 0.00 0.00 0.00 74 1021.5
20260902114540 77 63 7.0 12.0 0.00 0.00 0.00 81 1021.2
20260902113050 76 66 7.0 12.0 0.00 0.00 0.00 81 1020.7
20260902110034 76 53 8.0 12.0 0.00 0.00 0.00 82 1020.5
20260902104549 76 52 8.0 12.0 0.00 0.00 0.00 82 1020.4
20260902103036 76 55 8.0 12.0 0.00 0.00 0.00 83 1020.5
20260902100033 77 62 4.0 9.0 0.00 0.00 0.00 83 1020.4
20260902094536 77 60 4.0 7.0 0.00 0.00 0.00 83 1020.2
20260902090036 78 83 5.0 9.0 0.00 0.00 0.00 83 1019.7
20260902084535 77 74 6.0 8.0 0.00 0.00 0.00 83 1019.7
20260902080034 78 78 8.0 13.0 0.00 0.00 0.00 82 1019.6
20260902074535 78 55 8.0 13.0 0.00 0.00 0.00 82 1019.4
20260902064537 80 69 8.0 10.0 0.00 0.00 0.00 79 1019.6
20260902061544 80 67 7.0 9.0 0.00 0.00 0.00 80 1019.8
20260902060033 80 67 7.0 9.0 0.00 0.00 0.00 79 1019.9
20260902051535 82 80 7.0 9.0 0.00 0.00 0.00 75 1020.0
20260902043041 81 60 6.0 10.0 0.00 0.00 0.00 79 1019.8
20260902041535 82 68 5.0 8.0 0.00 0.00 0.00 80 1019.7